When you browse on this site, cookies collect data to enhance your experience and personalize the content and advertising you see.
Visit our Privacy Policy to learn more. By continuing to use the site, you agree to this use of cookies and data.
  • In Österreich
  • Länderverzeichnis
  • Für 7 Tage
  • Wassertemperatur
  • Satellitenkarten
  • Wetterkarte
  • News
  • Widgets
  • user-avatar
    Anmelden

    Stündliche Wetter Lipovec

    Heute, 19 April, Freitag

    Zeit Temperatur Niederschläge Wind Luftdruck Luftfeuchtigkeit
    00:00 +8°C° 0.4 mm 2 m/S 744 mmHg 69%
    01:00 +8°C° 0.4 mm 2 m/S 744 mmHg 76%
    02:00 +8°C° 0 mm 1 m/S 744 mmHg 80%
    03:00 +7°C° 0.1 mm 1 m/S 744 mmHg 81%
    04:00 +6°C° 0.1 mm 2 m/S 744 mmHg 83%
    05:00 +5°C° 0.1 mm 2 m/S 743 mmHg 84%
    06:00 +7°C° 0 mm 3 m/S 744 mmHg 81%
    07:00 +8°C° 0 mm 3 m/S 744 mmHg 77%
    08:00 +8°C° 0 mm 4 m/S 744 mmHg 74%
    09:00 +10°C° 0.5 mm 4 m/S 745 mmHg 67%
    10:00 +10°C° 0.5 mm 5 m/S 745 mmHg 60%
    11:00 +12°C° 0.5 mm 5 m/S 745 mmHg 53%
    12:00 +12°C° 0.4 mm 5 m/S 745 mmHg 53%
    13:00 +12°C° 0.4 mm 5 m/S 746 mmHg 52%
    14:00 +12°C° 0.4 mm 5 m/S 746 mmHg 51%
    15:00 +12°C° 0.2 mm 5 m/S 746 mmHg 52%
    16:00 +12°C° 0.2 mm 4 m/S 746 mmHg 52%
    17:00 +11°C° 0.2 mm 4 m/S 746 mmHg 52%
    18:00 +10°C° 0.1 mm 4 m/S 747 mmHg 57%
    19:00 +9°C° 0.1 mm 3 m/S 747 mmHg 62%
    20:00 +8°C° 0.1 mm 3 m/S 747 mmHg 67%
    21:00 +7°C° 0 mm 2 m/S 747 mmHg 68%
    22:00 +7°C° 0 mm 2 m/S 748 mmHg 69%
    23:00 +6°C° 0 mm 2 m/S 748 mmHg 69%

    Morgen, 20 April, Samstag

    Zeit Temperatur Niederschläge Wind Luftdruck Luftfeuchtigkeit
    00:00 +6°C° 0 mm 2 m/S 748 mmHg 70%
    01:00 +5°C° 0 mm 2 m/S 748 mmHg 71%
    02:00 +5°C° 0 mm 2 m/S 748 mmHg 72%
    03:00 +4°C° 0 mm 2 m/S 748 mmHg 73%
    04:00 +4°C° 0 mm 2 m/S 748 mmHg 74%
    05:00 +4°C° 0 mm 2 m/S 748 mmHg 75%
    06:00 +5°C° 0 mm 2 m/S 748 mmHg 70%
    07:00 +7°C° 0 mm 2 m/S 748 mmHg 64%
    08:00 +9°C° 0 mm 2 m/S 748 mmHg 59%
    09:00 +9°C° 0 mm 2 m/S 748 mmHg 53%
    10:00 +10°C° 0 mm 2 m/S 748 mmHg 47%
    11:00 +12°C° 0 mm 2 m/S 748 mmHg 41%
    12:00 +13°C° 0 mm 2 m/S 748 mmHg 42%
    13:00 +13°C° 0 mm 2 m/S 748 mmHg 42%
    14:00 +13°C° 0 mm 2 m/S 747 mmHg 42%
    15:00 +13°C° 0 mm 2 m/S 747 mmHg 44%
    16:00 +13°C° 0 mm 1 m/S 747 mmHg 47%
    17:00 +12°C° 0 mm 1 m/S 746 mmHg 49%
    18:00 +11°C° 0 mm 1 m/S 746 mmHg 52%
    19:00 +11°C° 0 mm 1 m/S 746 mmHg 56%
    20:00 +10°C° 0 mm 1 m/S 746 mmHg 59%
    21:00 +9°C° 0 mm 1 m/S 746 mmHg 60%
    22:00 +9°C° 0 mm 1 m/S 746 mmHg 61%
    23:00 +8°C° 0 mm 2 m/S 746 mmHg 62%

    übermorgen, 21 April, Sonntag

    Zeit Temperatur Niederschläge Wind Luftdruck Luftfeuchtigkeit
    00:00 +8°C° 0 mm 2 m/S 745 mmHg 64%
    01:00 +8°C° 0 mm 2 m/S 745 mmHg 66%
    02:00 +7°C° 0 mm 2 m/S 745 mmHg 68%
    03:00 +7°C° 0 mm 2 m/S 745 mmHg 69%
    04:00 +7°C° 0 mm 2 m/S 745 mmHg 70%
    05:00 +7°C° 0 mm 2 m/S 744 mmHg 72%
    06:00 +7°C° 0.1 mm 2 m/S 744 mmHg 71%
    07:00 +8°C° 0.1 mm 2 m/S 745 mmHg 71%
    08:00 +8°C° 0.1 mm 2 m/S 745 mmHg 70%
    09:00 +9°C° 0.1 mm 3 m/S 745 mmHg 66%
    10:00 +10°C° 0.1 mm 3 m/S 745 mmHg 62%
    11:00 +11°C° 0.1 mm 4 m/S 745 mmHg 58%
    12:00 +12°C° 0.1 mm 4 m/S 745 mmHg 56%
    13:00 +12°C° 0.1 mm 4 m/S 745 mmHg 54%
    14:00 +13°C° 0.1 mm 4 m/S 744 mmHg 53%
    15:00 +12°C° 0.2 mm 4 m/S 744 mmHg 54%
    16:00 +12°C° 0.2 mm 4 m/S 744 mmHg 55%
    17:00 +12°C° 0.2 mm 4 m/S 744 mmHg 56%
    18:00 +11°C° 0 mm 4 m/S 744 mmHg 59%
    19:00 +9°C° 0 mm 3 m/S 745 mmHg 63%
    20:00 +8°C° 0 mm 3 m/S 745 mmHg 66%
    21:00 +8°C° 0 mm 3 m/S 745 mmHg 67%
    22:00 +7°C° 0 mm 3 m/S 745 mmHg 67%
    23:00 +5°C° 0 mm 3 m/S 746 mmHg 68%

    22 April, Montag

    Zeit Temperatur Niederschläge Wind Luftdruck Luftfeuchtigkeit
    00:00 +5°C° 0 mm 3 m/S 746 mmHg 69%
    01:00 +5°C° 0 mm 3 m/S 746 mmHg 70%
    02:00 +4°C° 0 mm 3 m/S 746 mmHg 72%
    03:00 +4°C° 0 mm 3 m/S 746 mmHg 71%
    04:00 +5°C° 0 mm 2 m/S 746 mmHg 71%
    05:00 +5°C° 0 mm 2 m/S 746 mmHg 71%
    06:00 +7°C° 0 mm 3 m/S 747 mmHg 67%
    07:00 +8°C° 0 mm 3 m/S 747 mmHg 62%
    08:00 +8°C° 0 mm 4 m/S 748 mmHg 58%
    09:00 +10°C° 0 mm 4 m/S 748 mmHg 53%
    10:00 +10°C° 0 mm 5 m/S 748 mmHg 47%
    11:00 +12°C° 0 mm 5 m/S 748 mmHg 42%
    12:00 +12°C° 0 mm 5 m/S 748 mmHg 43%
    13:00 +12°C° 0 mm 5 m/S 748 mmHg 44%
    14:00 +12°C° 0 mm 4 m/S 748 mmHg 45%
    15:00 +12°C° 0 mm 4 m/S 748 mmHg 46%
    16:00 +12°C° 0 mm 4 m/S 748 mmHg 47%
    17:00 +12°C° 0 mm 4 m/S 748 mmHg 47%
    18:00 +11°C° 0 mm 4 m/S 748 mmHg 52%
    19:00 +10°C° 0 mm 3 m/S 748 mmHg 56%
    20:00 +9°C° 0 mm 3 m/S 748 mmHg 60%
    21:00 +8°C° 0 mm 3 m/S 749 mmHg 62%
    22:00 +8°C° 0 mm 3 m/S 749 mmHg 64%
    23:00 +7°C° 0 mm 2 m/S 749 mmHg 66%

    23 April, Dienstag

    Zeit Temperatur Niederschläge Wind Luftdruck Luftfeuchtigkeit
    00:00 +7°C° 0 mm 3 m/S 749 mmHg 66%
    01:00 +7°C° 0 mm 3 m/S 749 mmHg 66%
    02:00 +5°C° 0 mm 3 m/S 749 mmHg 66%
    03:00 +5°C° 0 mm 3 m/S 749 mmHg 68%
    04:00 +4°C° 0 mm 3 m/S 749 mmHg 70%
    05:00 +4°C° 0 mm 3 m/S 749 mmHg 72%
    06:00 +6°C° 0 mm 4 m/S 749 mmHg 68%
    07:00 +7°C° 0 mm 4 m/S 750 mmHg 63%
    08:00 +9°C° 0 mm 5 m/S 750 mmHg 59%
    09:00 +10°C° 0 mm 5 m/S 750 mmHg 55%
    10:00 +12°C° 0 mm 5 m/S 750 mmHg 50%
    11:00 +14°C° 0 mm 5 m/S 750 mmHg 45%
    12:00 +14°C° 0 mm 5 m/S 750 mmHg 45%
    13:00 +14°C° 0 mm 5 m/S 750 mmHg 44%
    14:00 +15°C° 0 mm 5 m/S 749 mmHg 43%
    15:00 +14°C° 0 mm 5 m/S 749 mmHg 46%
    16:00 +14°C° 0 mm 5 m/S 749 mmHg 49%
    17:00 +13°C° 0 mm 4 m/S 749 mmHg 51%
    18:00 +12°C° 0 mm 4 m/S 749 mmHg 55%
    19:00 +11°C° 0 mm 4 m/S 749 mmHg 58%
    20:00 +8°C° 0 mm 4 m/S 749 mmHg 62%
    21:00 +8°C° 0 mm 4 m/S 749 mmHg 63%
    22:00 +7°C° 0 mm 4 m/S 749 mmHg 64%
    23:00 +7°C° 0 mm 4 m/S 749 mmHg 65%

    24 April, Mittwoch

    Zeit Temperatur Niederschläge Wind Luftdruck Luftfeuchtigkeit
    00:00 +6°C° 0 mm 4 m/S 749 mmHg 67%
    01:00 +6°C° 0 mm 4 m/S 749 mmHg 68%
    02:00 +5°C° 0 mm 3 m/S 749 mmHg 70%
    03:00 +5°C° 0 mm 3 m/S 749 mmHg 71%
    04:00 +5°C° 0 mm 3 m/S 749 mmHg 71%
    05:00 +4°C° 0 mm 3 m/S 750 mmHg 72%
    06:00 +6°C° 0 mm 4 m/S 750 mmHg 68%
    07:00 +8°C° 0 mm 5 m/S 750 mmHg 63%
    08:00 +10°C° 0 mm 5 m/S 750 mmHg 59%
    09:00 +11°C° 0 mm 6 m/S 750 mmHg 55%
    10:00 +13°C° 0 mm 6 m/S 750 mmHg 52%
    11:00 +14°C° 0 mm 6 m/S 750 mmHg 48%
    12:00 +15°C° 0 mm 6 m/S 750 mmHg 47%
    13:00 +15°C° 0 mm 6 m/S 750 mmHg 46%
    14:00 +16°C° 0 mm 6 m/S 750 mmHg 45%
    15:00 +16°C° 0 mm 5 m/S 749 mmHg 46%
    16:00 +15°C° 0 mm 5 m/S 749 mmHg 47%
    17:00 +15°C° 0 mm 5 m/S 749 mmHg 48%
    18:00 +14°C° 0 mm 4 m/S 749 mmHg 53%
    19:00 +12°C° 0 mm 4 m/S 749 mmHg 59%
    20:00 +11°C° 0 mm 3 m/S 749 mmHg 64%
    21:00 +10°C° 0 mm 3 m/S 749 mmHg 66%
    22:00 +9°C° 0 mm 3 m/S 749 mmHg 68%
    23:00 +9°C° 0 mm 3 m/S 750 mmHg 70%
    Mehr zeigen